TimeCDT,TemperatureF,Dew PointF,Humidity,Sea Level PressureIn,VisibilityMPH,Wind Direction,Wind SpeedMPH,Gust SpeedMPH,PrecipitationIn,Events,Conditions,WindDirDegrees,DateUTC
12:15 AM,66.9,61.3,82,29.97,10.0,Calm,Calm,-,N/A,,Clear,0,2012-10-03 05:15:00
12:35 AM,66.4,61.7,85,29.97,10.0,Calm,Calm,-,N/A,,Clear,0,2012-10-03 05:35:00
12:55 AM,65.7,61.5,86,29.97,10.0,Calm,Calm,-,N/A,,Clear,0,2012-10-03 05:55:00
1:15 AM,65.8,61.7,86,29.97,10.0,Calm,Calm,-,N/A,,Clear,0,2012-10-03 06:15:00
1:35 AM,67.3,59.9,77,29.96,10.0,East,3.5,-,N/A,,Clear,80,2012-10-03 06:35:00
1:55 AM,68.5,59.4,72,29.96,10.0,Calm,Calm,-,N/A,,Clear,0,2012-10-03 06:55:00
2:15 AM,65.3,59.7,82,29.96,10.0,ENE,4.6,-,N/A,,Clear,70,2012-10-03 07:15:00
2:35 AM,67.1,59.9,78,29.95,10.0,Calm,Calm,-,N/A,,Clear,0,2012-10-03 07:35:00
2:55 AM,66.4,59.4,78,29.95,10.0,ENE,3.5,-,N/A,,Clear,70,2012-10-03 07:55:00
3:15 AM,65.8,59.0,79,29.95,10.0,Calm,Calm,-,N/A,,Clear,0,2012-10-03 08:15:00
3:35 AM,65.8,59.0,79,29.95,10.0,Calm,Calm,-,N/A,,Clear,0,2012-10-03 08:35:00
3:55 AM,65.3,59.4,81,29.94,10.0,NE,3.5,-,N/A,,Clear,50,2012-10-03 08:55:00
4:15 AM,64.8,59.0,82,29.94,10.0,Calm,Calm,-,N/A,,Clear,0,2012-10-03 09:15:00
4:35 AM,64.8,58.8,81,29.94,10.0,Calm,Calm,-,N/A,,Clear,0,2012-10-03 09:35:00
4:55 AM,64.8,58.5,80,29.95,10.0,Calm,Calm,-,N/A,,Clear,0,2012-10-03 09:55:00
5:15 AM,65.1,58.8,80,29.95,10.0,ENE,3.5,-,N/A,,Clear,60,2012-10-03 10:15:00
5:35 AM,64.8,59.2,82,29.95,10.0,Calm,Calm,-,N/A,,Clear,0,2012-10-03 10:35:00
6:35 AM,64.4,60.6,88,29.97,10.0,Calm,Calm,-,N/A,,Clear,0,2012-10-03 11:35:00
6:55 AM,64.9,60.8,86,29.97,10.0,Calm,Calm,-,N/A,,Clear,0,2012-10-03 11:55:00
7:15 AM,64.9,61.0,87,29.97,10.0,Calm,Calm,-,N/A,,Clear,0,2012-10-03 12:15:00
7:35 AM,64.2,60.8,89,29.98,10.0,West,4.6,-,N/A,,Scattered Clouds,280,2012-10-03 12:35:00
7:55 AM,64.8,61.3,89,29.98,10.0,WNW,4.6,-,N/A,,Scattered Clouds,300,2012-10-03 12:55:00
8:15 AM,65.8,61.9,87,29.99,10.0,WNW,3.5,-,N/A,,Mostly Cloudy,290,2012-10-03 13:15:00
8:35 AM,67.1,62.2,84,29.99,10.0,WNW,4.6,-,N/A,,Scattered Clouds,290,2012-10-03 13:35:00
8:55 AM,68.9,62.2,79,29.99,10.0,Calm,Calm,-,N/A,,Scattered Clouds,0,2012-10-03 13:55:00
9:15 AM,70.9,63.1,76,30.00,10.0,Calm,Calm,-,N/A,,Scattered Clouds,0,2012-10-03 14:15:00
9:35 AM,72.9,63.3,72,30.01,10.0,Calm,Calm,-,N/A,,Scattered Clouds,0,2012-10-03 14:35:00
10:15 AM,77.7,62.4,59,30.01,10.0,Calm,Calm,-,N/A,,Clear,0,2012-10-03 15:15:00
10:35 AM,80.6,63.3,55,30.01,10.0,Calm,Calm,-,N/A,,Clear,0,2012-10-03 15:35:00
10:55 AM,82.8,63.0,51,30.01,10.0,SSW,5.8,-,N/A,,Clear,210,2012-10-03 15:55:00
11:15 AM,84.2,61.3,46,30.00,10.0,South,6.9,-,N/A,,Clear,170,2012-10-03 16:15:00
11:35 AM,84.9,62.2,46,30.01,10.0,South,8.1,-,N/A,,Clear,190,2012-10-03 16:35:00
11:55 AM,85.6,63.7,48,30.01,10.0,South,11.5,-,N/A,,Clear,180,2012-10-03 16:55:00
12:15 PM,85.6,63.0,46,30.00,10.0,South,10.4,-,N/A,,Clear,180,2012-10-03 17:15:00
12:35 PM,86.5,63.3,46,30.00,10.0,SSE,10.4,18.4,N/A,,Clear,150,2012-10-03 17:35:00
12:55 PM,86.7,63.0,45,29.99,10.0,SSE,13.8,18.4,N/A,,Clear,150,2012-10-03 17:55:00
1:15 PM,86.5,62.8,45,29.98,10.0,SE,8.1,-,N/A,,Clear,140,2012-10-03 18:15:00
1:35 PM,86.9,63.0,45,29.97,10.0,SSE,9.2,-,N/A,,Clear,160,2012-10-03 18:35:00
1:55 PM,87.1,64.0,46,29.97,10.0,SE,11.5,19.6,N/A,,Clear,130,2012-10-03 18:55:00
2:15 PM,86.9,62.8,44,29.96,10.0,SSE,11.5,20.7,N/A,,Clear,150,2012-10-03 19:15:00
2:35 PM,87.3,64.9,47,29.96,10.0,SSE,11.5,18.4,N/A,,Clear,160,2012-10-03 19:35:00
2:55 PM,87.1,65.1,48,29.95,10.0,SSE,12.7,18.4,N/A,,Clear,160,2012-10-03 19:55:00
3:15 PM,87.4,64.6,46,29.95,10.0,SE,12.7,18.4,N/A,,Clear,140,2012-10-03 20:15:00
3:35 PM,87.3,64.0,46,29.95,10.0,SE,13.8,20.7,N/A,,Clear,140,2012-10-03 20:35:00
3:55 PM,87.3,64.6,47,29.94,10.0,SE,13.8,20.7,N/A,,Clear,140,2012-10-03 20:55:00
4:15 PM,86.9,64.9,48,29.94,10.0,SSE,15.0,24.2,N/A,,Clear,160,2012-10-03 21:15:00
4:35 PM,86.5,65.8,50,29.94,10.0,SE,17.3,21.9,N/A,,Clear,140,2012-10-03 21:35:00
4:55 PM,86.2,67.1,53,29.94,10.0,SE,18.4,23.0,N/A,,Clear,140,2012-10-03 21:55:00
5:15 PM,85.8,68.2,55,29.94,10.0,SE,17.3,23.0,N/A,,Clear,140,2012-10-03 22:15:00
5:35 PM,85.3,68.9,58,29.94,10.0,SE,16.1,-,N/A,,Clear,140,2012-10-03 22:35:00
5:55 PM,84.9,69.3,59,29.94,10.0,SE,17.3,23.0,N/A,,Clear,130,2012-10-03 22:55:00
6:15 PM,84.2,69.8,62,29.95,10.0,SE,12.7,18.4,N/A,,Clear,140,2012-10-03 23:15:00
6:35 PM,83.5,70.3,64,29.95,10.0,SE,15.0,20.7,N/A,,Clear,140,2012-10-03 23:35:00
6:55 PM,82.8,70.7,67,29.95,10.0,SE,10.4,19.6,N/A,,Clear,140,2012-10-03 23:55:00
7:15 PM,81.9,70.9,69,29.95,10.0,SE,11.5,-,N/A,,Clear,140,2012-10-04 00:15:00
7:35 PM,81.3,71.2,71,29.95,10.0,SE,11.5,-,N/A,,Clear,140,2012-10-04 00:35:00
7:55 PM,81.0,71.6,73,29.96,10.0,SE,10.4,-,N/A,,Clear,130,2012-10-04 00:55:00
8:15 PM,80.8,72.0,74,29.96,10.0,SE,11.5,-,N/A,,Clear,130,2012-10-04 01:15:00
8:35 PM,80.8,72.0,74,29.97,10.0,SE,12.7,-,N/A,,Clear,140,2012-10-04 01:35:00
8:55 PM,80.8,72.0,74,29.97,10.0,SE,12.7,-,N/A,,Clear,140,2012-10-04 01:55:00
9:15 PM,81.0,72.1,74,29.97,10.0,SE,11.5,-,N/A,,Clear,140,2012-10-04 02:15:00
9:35 PM,81.0,72.3,75,29.98,10.0,SE,11.5,-,N/A,,Clear,140,2012-10-04 02:35:00
9:55 PM,81.1,72.7,75,29.99,10.0,SE,12.7,-,N/A,,Clear,140,2012-10-04 02:55:00
10:15 PM,81.1,73.0,76,29.99,10.0,SSE,13.8,-,N/A,,Clear,150,2012-10-04 03:15:00
10:35 PM,81.5,73.2,76,29.99,10.0,SSE,13.8,-,N/A,,Clear,150,2012-10-04 03:35:00
10:55 PM,81.5,73.4,76,29.99,10.0,SSE,13.8,-,N/A,,Clear,150,2012-10-04 03:55:00
11:35 PM,81.5,73.4,76,30.00,10.0,SSE,13.8,20.7,N/A,,Clear,150,2012-10-04 04:35:00
11:55 PM,81.5,73.6,77,29.99,10.0,SSE,15.0,21.9,N/A,,Clear,150,2012-10-04 04:55:00